This is the latest recevied weather packets stored in our database for station/object W4ZHA. If no packets are shown the sender has not sent any weather packets the latest 10 day(s).
| Time | Temp. | Humidity | Pressure | Rain* | Wind** | Luminosity | Snow |
|---|---|---|---|---|---|---|---|
| 1787837171 | 23.89° C | 67% | 1016.5 hPa | 0 mm | - | 82 W/m² | - |
| 1787836870 | 23.89° C | 67% | 1016.5 hPa | 0 mm | - | 87 W/m² | - |
| 1787836565 | 23.89° C | 68% | 1016.5 hPa | 0 mm | - | 86 W/m² | - |
| 1787836265 | 23.89° C | 70% | 1016.1 hPa | 0 mm | - | 82 W/m² | - |
| 1787835961 | 23.89° C | 71% | 1016.5 hPa | 0 mm | - | 79 W/m² | - |
| 1787835655 | 23.33° C | 74% | 1016.1 hPa | 0 mm | - | 84 W/m² | - |
| 1787835350 | 22.78° C | 86% | 1016.1 hPa | 0 mm | - | 82 W/m² | - |
| 1787835045 | 22.78° C | 94% | 1016.1 hPa | 0 mm | - | 74 W/m² | - |
| 1787834744 | 22.22° C | 98% | 1016.1 hPa | 0 mm | - | 63 W/m² | - |
| 1787834439 | 22.22° C | 98% | 1016.1 hPa | 0 mm | - | 53 W/m² | - |
| 1787834135 | 22.22° C | 98% | 1015.8 hPa | 0 mm | - | 44 W/m² | - |
| 1787833830 | 21.67° C | 98% | 1016.5 hPa | 0 mm | - | 40 W/m² | - |
| 1787833526 | 21.67° C | 98% | 1016.5 hPa | 0 mm | - | 38 W/m² | - |
| 1787833221 | 21.67° C | 99% | 1016.1 hPa | 0 mm | - | 31 W/m² | - |
| 1787832916 | 21.67° C | 98% | 1016.1 hPa | 0 mm | - | 31 W/m² | - |
| 1787832613 | 21.67° C | 98% | 1016.1 hPa | 0 mm | - | 26 W/m² | - |
| 1787832311 | 21.67° C | 98% | 1016.1 hPa | 0 mm | - | 27 W/m² | - |
| 1787832011 | 21.67° C | 99% | 1016.1 hPa | 0 mm | - | 25 W/m² | - |
| 1787831704 | 21.11° C | 97% | 1015.8 hPa | 0 mm | - | 21 W/m² | - |
| 1787831403 | 21.11° C | 98% | 1016.1 hPa | 0 mm | - | 19 W/m² | - |
| 1787831101 | 21.11° C | 97% | 1015.8 hPa | 0 mm | - | 17 W/m² | - |
| 1787830799 | 21.11° C | 97% | 1015.8 hPa | 0 mm | - | 13 W/m² | - |
| 1787830498 | 21.11° C | 97% | 1015.5 hPa | 0 mm | - | 10 W/m² | - |
| 1787830197 | 21.11° C | 97% | 1015.5 hPa | 0 mm | - | 7 W/m² | - |
| 1787829893 | 21.11° C | 96% | 1015.5 hPa | 0 mm | - | 4 W/m² | - |
* Rain latest hour (hover to see other rain measurements)
** Current wind speed in m/s (hover to see current wind gust speed)